sat.trackr.live / text

‹ back to catalog

STARLINK-33720

NORAD 63468 · 2025-070J

PAYLOAD ACTIVE UNKNOWN

§ Identity

Operator
Country
US
Launch date
2025-04-06
Launch site
AFETR
Launch vehicle
Mass (kg)
RCS (m²)

Purposes: comms

External: N2YO · Heavens-Above · Gunter

§ Orbital elements

Epoch: 2026-09-20T15:47:57.579648Z

Period
94.27 min
Inclination
43.0019°
Eccentricity
0.0001402
Mean motion
15.27585532 rev/d
Perigee alt
482.1 km
Apogee alt
484.0 km
Semi-major
6,861.2 km
B*
4.3878e-4
RAAN
238.7848°
Arg perigee
277.5825°
Mean anomaly
82.4867°
Rev number
8,279

§ Raw data

STARLINK-337201 63468U 25070J   26263.65830532  .00011833  00000+0  43878-3 0  99902 63468  43.0019 238.7848 0001402 277.5825  82.4867 15.27585532 82793

JSON: /api/v1/satellites/63468 · /tle

For live sub-satellite position, see the globe view (requires WebGL).

§ Visibility from observer

Set your observer location to see the next 7 days of passes ≥ 10°. The values pass through the URL so the page stays shareable.

No JS? Fill the form by hand. The geolocation button needs JavaScript.